{"data":{"norad_id":66783,"intl_designator":"2025-276DY","name":"LEMUR-2-STARLIGHT","alt_names":[],"object_type":"PAYLOAD","status":"ACTIVE","operator":null,"country":"US","launch_date":"2025-11-28","launch_site_code":"AFWTR","launch_vehicle":null,"mission":null,"orbit_class":"UNKNOWN","rcs_meters":null,"size_class":null,"mass_kg":null,"dimensions":null,"purposes":["earth_obs"],"wikipedia_slug":null,"has_3d_model":false,"image_url":null,"decayed_at":null,"tle_current":{"epoch":"2026-05-25T03:19:50.113344Z","epoch_age_seconds":57088,"freshness":"FRESH","line1":"1 66783U 25276DY  26145.13877446  .00003535  00000+0  29784-3 0  9998","line2":"2 66783  97.5250 216.5660 0014510 200.6220 159.4420 14.98739682 26740","mean_motion":14.98739682,"eccentricity":0.001451,"inclination_deg":97.525,"raan_deg":216.566,"arg_perigee_deg":200.622,"mean_anomaly_deg":159.442,"bstar":0.00029784,"rev_number":2674,"period_min":96.080728180786,"perigee_km":560.70637973476,"apogee_km":580.87216377539,"semimajor_km":6948.9262717551,"source":"CELESTRAK","updated_at":"2026-05-25T13:38:13.576041Z"}}}